This is the latest recevied weather packets stored in our database for station/object KY0TEQ-13. If no packets are shown the sender has not sent any weather packets the latest 10 day(s).
| Time | Temp. | Humidity | Pressure | Rain* | Wind** | Luminosity | Snow |
|---|---|---|---|---|---|---|---|
| 1778010381 | 15.56° C | 23% | 1295.4 hPa | 0 mm | - | 888 W/m² | - |
| 1778010076 | 14.44° C | 23% | 1295.3 hPa | 0 mm | - | 928 W/m² | - |
| 1778009773 | 14.44° C | 24% | 1295.6 hPa | 0 mm | - | 525 W/m² | - |
| 1778009470 | 13.89° C | 25% | 1295.1 hPa | 0 mm | - | 479 W/m² | - |
| 1778009169 | 15° C | 24% | 1295.3 hPa | 0 mm | - | 542 W/m² | - |
| 1778008866 | 15° C | 24% | 1295.6 hPa | 0 mm | - | 755 W/m² | - |
| 1778008564 | 14.44° C | 24% | 1295.7 hPa | 0 mm | - | 700 W/m² | - |
| 1778008261 | 14.44° C | 25% | 1295.9 hPa | 0 mm | - | 542 W/m² | - |
| 1778007956 | 14.44° C | 23% | 1295.9 hPa | 0 mm | - | 546 W/m² | - |
| 1778007652 | 14.44° C | 25% | 1295.9 hPa | 0 mm | - | 964 W/m² | - |
| 1778007344 | 14.44° C | 24% | 1295.9 hPa | 0 mm | - | 1024 W/m² | - |
| 1778007040 | 14.44° C | 24% | 1295.9 hPa | 0 mm | - | 739 W/m² | - |
| 1778006737 | 13.89° C | 25% | 1296.1 hPa | 0 mm | - | 739 W/m² | - |
| 1778006434 | 13.89° C | 25% | 1296.1 hPa | 0 mm | - | 812 W/m² | - |
| 1778006130 | 13.89° C | 25% | 1296.2 hPa | 0 mm | - | 851 W/m² | - |
| 1778005828 | 13.89° C | 23% | 1296.1 hPa | 0 mm | - | 775 W/m² | - |
| 1778005524 | 13.33° C | 26% | 1296.5 hPa | 0 mm | - | 471 W/m² | - |
| 1778005221 | 12.78° C | 25% | 1296.6 hPa | 0 mm | - | 587 W/m² | - |
| 1778004917 | 13.89° C | 25% | 1296.5 hPa | 0 mm | - | 910 W/m² | - |
| 1778004614 | 13.89° C | 25% | 1296.6 hPa | 0 mm | - | 729 W/m² | - |
| 1778004310 | 13.89° C | 26% | 1296.4 hPa | 0 mm | - | 873 W/m² | - |
| 1778004009 | 13.33° C | 25% | 1296.5 hPa | 0 mm | - | 782 W/m² | - |
| 1778003703 | 12.78° C | 25% | 1296.5 hPa | 0 mm | - | 786 W/m² | - |
| 1778003401 | 12.22° C | 27% | 1296.7 hPa | 0 mm | - | 726 W/m² | - |
| 1778003097 | 12.78° C | 27% | 1296.6 hPa | 0 mm | - | 804 W/m² | - |
* Rain latest hour (hover to see other rain measurements)
** Current wind speed in m/s (hover to see current wind gust speed)